| time (UTC) | temp C | wind direction | speed KPH | gust KPH | rain 1hr cm | rain 24hr cm | rain mn cm | humidity % | barometer mb |
| 20260831174555 | 27 | 307 | 4.8 | 17.7 | 0.00 | 0.00 | 0.00 | 31 | 1009.6 |
| 20260831173057 | 27 | 340 | 3.2 | 17.7 | 0.00 | 0.00 | 0.00 | 32 | 1009.7 |
| 20260831171551 | 27 | 321 | 6.4 | 16.1 | 0.00 | 0.00 | 0.00 | 32 | 1009.7 |
| 20260831170049 | 26 | 323 | 3.2 | 8.0 | 0.00 | 0.00 | 0.00 | 33 | 1009.7 |
| 20260831164545 | 26 | 300 | 3.2 | 12.9 | 0.00 | 0.00 | 0.00 | 35 | 1009.8 |
| 20260831163042 | 25 | 290 | 9.7 | 16.1 | 0.00 | 0.00 | 0.00 | 39 | 1009.8 |
| 20260831161541 | 23 | 250 | 0.0 | 9.7 | 0.00 | 0.00 | 0.00 | 46 | 1010.0 |
| 20260831160035 | 22 | 253 | 3.2 | 8.0 | 0.00 | 0.00 | 0.00 | 47 | 1010.2 |
| 20260831154532 | 21 | 253 | 3.2 | 8.0 | 0.00 | 0.00 | 0.00 | 45 | 1010.3 |
| 20260831153029 | 20 | 203 | 3.2 | 9.7 | 0.00 | 0.00 | 0.00 | 51 | 1010.4 |
| 20260831151530 | 20 | 190 | 1.6 | 6.4 | 0.00 | 0.00 | 0.00 | 53 | 1010.2 |
| 20260831150028 | 19 | 241 | 0.0 | 9.7 | 0.00 | 0.00 | 0.00 | 56 | 1010.1 |
| 20260831144527 | 18 | 356 | 3.2 | 9.7 | 0.00 | 0.00 | 0.00 | 56 | 1009.9 |
| 20260831143027 | 18 | 213 | 0.0 | 8.0 | 0.00 | 0.00 | 0.00 | 57 | 1010.4 |
| 20260831141526 | 18 | 261 | 1.6 | 6.4 | 0.00 | 0.00 | 0.00 | 58 | 1010.3 |
| 20260831140027 | 18 | 317 | 1.6 | 6.4 | 0.00 | 0.00 | 0.00 | 60 | 1010.1 |
| 20260831134523 | 17 | 12 | 0.0 | 3.2 | 0.00 | 0.00 | 0.00 | 60 | 1010.2 |
| 20260831133026 | 17 | 12 | 0.0 | 6.4 | 0.00 | 0.00 | 0.00 | 61 | 1010.2 |
| 20260831131518 | 17 | 7 | 3.2 | 8.0 | 0.00 | 0.00 | 0.00 | 61 | 1010.0 |
| 20260831130018 | 17 | 8 | 0.0 | 8.0 | 0.00 | 0.00 | 0.00 | 62 | 1009.6 |
| 20260831124519 | 17 | 324 | 3.2 | 8.0 | 0.00 | 0.00 | 0.00 | 63 | 1009.4 |
| 20260831123015 | 17 | 309 | 0.0 | 6.4 | 0.00 | 0.00 | 0.00 | 63 | 1009.3 |
| 20260831121515 | 17 | 298 | 0.0 | 3.2 | 0.00 | 0.00 | 0.00 | 64 | 1009.1 |
| 20260831120014 | 17 | 257 | 0.0 | 0.0 | 0.00 | 0.00 | 0.00 | 65 | 1009.0 |
| 20260831114514 | 17 | 180 | 0.0 | 0.0 | 0.00 | 0.00 | 0.00 | 65 | 1008.8 |
| 20260831113013 | 17 | 180 | 0.0 | 0.0 | 0.00 | 0.00 | 0.00 | 65 | 1008.7 |
| 20260831111511 | 17 | 180 | 0.0 | 0.0 | 0.00 | 0.00 | 0.00 | 66 | 1008.7 |
| 20260831110011 | 16 | 180 | 0.0 | 0.0 | 0.00 | 0.00 | 0.00 | 66 | 1008.4 |
| 20260831104517 | 17 | 180 | 0.0 | 0.0 | 0.00 | 0.00 | 0.00 | 66 | 1008.5 |
| 20260831103009 | 17 | 180 | 0.0 | 0.0 | 0.00 | 0.00 | 0.00 | 67 | 1008.7 |
| 20260831101513 | 17 | 180 | 0.0 | 0.0 | 0.00 | 0.00 | 0.00 | 67 | 1008.4 |
| 20260831100005 | 17 | 180 | 0.0 | 1.6 | 0.00 | 0.00 | 0.00 | 65 | 1008.5 |
| 20260831094504 | 17 | 228 | 1.6 | 6.4 | 0.00 | 0.00 | 0.00 | 64 | 1008.4 |
| 20260831093002 | 17 | 223 | 0.0 | 0.0 | 0.00 | 0.00 | 0.00 | 64 | 1008.0 |
| 20260831091505 | 17 | 223 | 0.0 | 0.0 | 0.00 | 0.00 | 0.00 | 64 | 1008.1 |
| 20260831090101 | 18 | 223 | 0.0 | 1.6 | 0.00 | 0.00 | 0.00 | 63 | 1007.9 |
| 20260831084605 | 18 | 295 | 1.6 | 8.0 | 0.00 | 0.00 | 0.00 | 63 | 1007.8 |
| 20260831083100 | 18 | 298 | 0.0 | 6.4 | 0.00 | 0.00 | 0.00 | 61 | 1007.7 |
| 20260831081602 | 18 | 298 | 0.0 | 0.0 | 0.00 | 0.00 | 0.00 | 60 | 1007.8 |
| 20260831080125 | 19 | 298 | 0.0 | 8.0 | 0.00 | 0.00 | 0.00 | 60 | 1007.8 |
| 20260831074551 | 19 | 315 | 3.2 | 11.3 | 0.00 | 0.00 | 0.00 | 60 | 1008.2 |
| 20260831073110 | 19 | 303 | 8.0 | 11.3 | 0.00 | 0.00 | 0.00 | 59 | 1008.7 |
| 20260831071551 | 20 | 257 | 1.6 | 9.7 | 0.00 | 0.00 | 0.00 | 59 | 1009.2 |
| 20260831070041 | 20 | 324 | 0.0 | 8.0 | 0.00 | 0.00 | 0.00 | 58 | 1009.6 |
| 20260831064542 | 20 | 223 | 1.6 | 12.9 | 0.00 | 0.00 | 0.00 | 56 | 1010.0 |
| 20260831063044 | 20 | 246 | 0.0 | 6.4 | 0.00 | 0.00 | 0.00 | 54 | 1009.7 |
| 20260831061536 | 20 | 13 | 0.0 | 6.4 | 0.00 | 0.00 | 0.00 | 53 | 1009.8 |
| 20260831060034 | 21 | 275 | 1.6 | 8.0 | 0.00 | 0.00 | 0.00 | 51 | 1009.7 |
| 20260831054532 | 21 | 305 | 0.0 | 8.0 | 0.00 | 0.00 | 0.00 | 49 | 1009.8 |
| 20260831053032 | 21 | 310 | 6.4 | 14.5 | 0.00 | 0.00 | 0.00 | 48 | 1009.7 |
| 20260831051536 | 21 | 277 | 9.7 | 16.1 | 0.00 | 0.00 | 0.00 | 47 | 1009.7 |
| 20260831050030 | 21 | 290 | 0.0 | 6.4 | 0.00 | 0.00 | 0.00 | 53 | 1009.7 |
| 20260831044530 | 20 | 236 | 0.0 | 0.0 | 0.00 | 0.00 | 0.00 | 54 | 1009.7 |
| 20260831043028 | 21 | 236 | 0.0 | 4.8 | 0.00 | 0.00 | 0.00 | 54 | 1009.6 |
| 20260831041527 | 21 | 228 | 0.0 | 0.0 | 0.00 | 0.00 | 0.00 | 52 | 1009.4 |
| 20260831040030 | 21 | 26 | 0.0 | 0.0 | 0.00 | 0.00 | 0.00 | 50 | 1009.4 |
| 20260831034528 | 22 | 26 | 0.0 | 4.8 | 0.00 | 0.00 | 0.00 | 49 | 1009.1 |
| 20260831033033 | 22 | 8 | 0.0 | 1.6 | 0.00 | 0.00 | 0.00 | 47 | 1008.9 |
| 20260831031520 | 23 | 130 | 4.8 | 8.0 | 0.00 | 0.00 | 0.00 | 46 | 1008.7 |
| 20260831030017 | 23 | 1 | 0.0 | 4.8 | 0.00 | 0.00 | 0.00 | 45 | 1008.3 |
| 20260831024514 | 23 | 356 | 4.8 | 9.7 | 0.00 | 0.00 | 0.00 | 45 | 1007.8 |
| 20260831023012 | 23 | 258 | 1.6 | 11.3 | 0.00 | 0.00 | 0.00 | 43 | 1007.5 |
| 20260831021514 | 24 | 40 | 12.9 | 19.3 | 0.00 | 0.00 | 0.00 | 42 | 1006.6 |
| 20260831020008 | 24 | 27 | 11.3 | 19.3 | 0.00 | 0.00 | 0.00 | 42 | 1006.1 |
| 20260831014511 | 24 | 20 | 12.9 | 20.9 | 0.00 | 0.00 | 0.00 | 42 | 1005.9 |
| 20260831013008 | 24 | 22 | 9.7 | 20.9 | 0.00 | 0.00 | 0.00 | 42 | 1005.8 |
| 20260831011515 | 25 | 14 | 11.3 | 24.1 | 0.00 | 0.00 | 0.00 | 42 | 1005.7 |
| 20260831010006 | 25 | 34 | 19.3 | 30.6 | 0.00 | 0.00 | 0.00 | 41 | 1005.5 |
| 20260831004506 | 25 | 35 | 20.9 | 32.2 | 0.00 | 0.00 | 0.00 | 41 | 1005.5 |
| 20260831003008 | 26 | 34 | 19.3 | 40.2 | 0.00 | 0.00 | 0.00 | 36 | 1005.6 |
| 20260831001504 | 27 | 303 | 4.8 | 11.3 | 0.00 | 0.00 | 0.00 | 34 | 1004.9 |
| 20260831000004 | 28 | 277 | 8.0 | 14.5 | 0.00 | 0.00 | 0.00 | 33 | 1004.9 |
| 20260830234512 | 29 | 298 | 6.4 | 12.9 | 0.00 | 0.00 | 0.00 | 30 | 1004.7 |
| 20260830233005 | 29 | 314 | 6.4 | 12.9 | 0.00 | 0.00 | 0.00 | 29 | 1004.3 |
| 20260830231508 | 29 | 12 | 4.8 | 11.3 | 0.00 | 0.00 | 0.00 | 30 | 1004.4 |
| 20260830230002 | 29 | 312 | 11.3 | 16.1 | 0.00 | 0.00 | 0.00 | 29 | 1004.4 |
| 20260830224502 | 29 | 335 | 6.4 | 16.1 | 0.00 | 0.00 | 0.00 | 29 | 1004.4 |
| 20260830223005 | 30 | 323 | 8.0 | 16.1 | 0.00 | 0.00 | 0.00 | 28 | 1004.1 |
| 20260830221501 | 30 | 288 | 8.0 | 16.1 | 0.00 | 0.00 | 0.00 | 28 | 1004.1 |
| 20260830220103 | 30 | 328 | 3.2 | 9.7 | 0.00 | 0.00 | 0.00 | 28 | 1004.2 |
| 20260830214603 | 30 | 29 | 1.6 | 3.2 | 0.00 | 0.00 | 0.00 | 28 | 1004.1 |
| 20260830213058 | 30 | 6 | 1.6 | 6.4 | 0.00 | 0.00 | 0.00 | 28 | 1004.0 |
| 20260830211558 | 29 | 142 | 3.2 | 14.5 | 0.00 | 0.00 | 0.00 | 29 | 1003.9 |
| 20260830210058 | 30 | 157 | 6.4 | 14.5 | 0.00 | 0.00 | 0.00 | 30 | 1003.9 |
| 20260830204600 | 30 | 64 | 9.7 | 14.5 | 0.00 | 0.00 | 0.00 | 30 | 1003.7 |
| 20260830203056 | 30 | 116 | 6.4 | 17.7 | 0.00 | 0.00 | 0.00 | 30 | 1003.8 |
| 20260830201553 | 30 | 168 | 4.8 | 9.7 | 0.00 | 0.00 | 0.00 | 29 | 1004.2 |
| 20260830200051 | 29 | 253 | 4.8 | 9.7 | 0.00 | 0.00 | 0.00 | 30 | 1004.4 |
| 20260830194602 | 30 | 208 | 3.2 | 11.3 | 0.00 | 0.00 | 0.00 | 30 | 1004.5 |
| 20260830193049 | 29 | 209 | 3.2 | 11.3 | 0.00 | 0.00 | 0.00 | 30 | 1004.6 |
| 20260830191545 | 29 | 215 | 3.2 | 14.5 | 0.00 | 0.00 | 0.00 | 31 | 1004.8 |
| 20260830190042 | 28 | 193 | 4.8 | 12.9 | 0.00 | 0.00 | 0.00 | 30 | 1005.2 |
| 20260830184541 | 28 | 203 | 8.0 | 16.1 | 0.00 | 0.00 | 0.00 | 32 | 1005.4 |
| 20260830183040 | 28 | 188 | 8.0 | 17.7 | 0.00 | 0.00 | 0.00 | 31 | 1005.6 |
| 20260830181538 | 28 | 270 | 4.8 | 11.3 | 0.00 | 0.00 | 0.00 | 33 | 1005.8 |
| 20260830180036 | 27 | 239 | 4.8 | 16.1 | 0.00 | 0.00 | 0.00 | 34 | 1005.8 |